Location: Unspecified
(0.0000°N, 0.0000°E)
Time: 05:06:32
(UTC+00:00)

CZ-3B DEB - Visible Passes

Search period start: 25 July 2024 00:00
Search period end: 04 August 2024 00:00
Orbit: 1116 x 41452 km, 25.9° (Epoch: 14 April)

Date Brightness Start Highest point End Pass type
(mag) Time Alt. Az. Time Alt. Az. Time Alt. Az.
25 Jul ? 05:13:03 10° WNW 07:08:51 37° NW 11:41:29 10° WNW visible
26 Jul ? 18:30:36 10° SSW 18:35:22 24° SSE 18:41:31 10° E visible
27 Jul ? 02:12:04 10° ENE 05:02:23 27° E 06:18:54 10° E visible
27 Jul ? 20:00:48 10° SW 20:06:40 62° SSE 20:25:23 10° ENE visible
28 Jul ? 01:04:32 10° ENE 06:36:08 52° E 08:06:59 10° ESE visible
28 Jul ? 21:31:11 10° WSW 21:46:16 47° NE 09:43:42 10° ESE visible
29 Jul ? 23:02:21 10° W 23:15:36 56° N 11:16:33 10° SE visible
31 Jul ? 00:35:53 13° WNW 01:07:05 53° N 12:47:41 10° SE visible
01 Aug ? 02:09:47 10° WNW 05:31:45 62° NNW 14:18:05 10° SSE visible
02 Aug ? 03:49:11 10° WNW 06:01:22 48° NW 11:50:34 10° W visible
03 Aug ? 05:39:50 10° WNW 07:19:41 28° WNW 10:40:03 10° WNW visible
